Flag for U.S.A. Weather past 2 weeks in Talkeetna, Alaska, U.S.A.

Now
57 °F

Overcast.


Feels Like: 55 °F
Forecast: 53 / 64 °F
Wind: 8 mph from South

Location: Talkeetna Weather Reporting Station

Current Time: Jul 23, 2014 at 2:37:28 AM

Latest Report: Jul 23, 2014 at 1:53 AM


Visibility: 10 mi

Pressure: 29.87 "Hg

Humidity: 72%

Dew point: 48 °F

Location of TalkeetnaLocation

Historic Weather in Talkeetna — Graph

°F

Talkeetna temperature yesterday

Maximum temperature yesterday: 69 °F (at 5:53 PM)
Minimum temperature yesterday: 50 °F (at 3:53 AM)
Average temperature yesterday: 59 °F

Past Weeks' High & Low Weather Summary

 TemperatureHumidityPressure
High71 °F (Jul 21, 4:53 PM)97% (Jul 11, 1:53 AM)30.32 "Hg (Jul 11, 1:53 AM)
Low43 °F (Jul 21, 4:53 AM)35% (Jul 21, 4:53 PM)29.56 "Hg (Jul 19, 7:53 PM)
Average59 °F71%29.94 "Hg
* Reported Jul 8 12:53 AM — Jul 23 12:53 AM, Talkeetna, Weather by CustomWeather, © 2014

Note: Actual official high and low records may vary slightly from our data, if they occured in-between our weather recording intervals... More about our weather records

Advertising

Talkeetna weather history for previous 24 hours

 ConditionsComfort  
Time TempWeatherWind HumidityBarometerVisibility
12:53 AM
Jul 23
57 °FMostly cloudy.3 mph74%29.87 "Hg9 mi
11:53 PM
Jul 22
62 °FOvercast.12 mph58%29.84 "Hg10 mi
9:53 PM65 °FMostly cloudy.6 mph54%29.83 "Hg10 mi
8:53 PM67 °FMostly cloudy.3 mph49%29.83 "Hg10 mi
7:53 PM68 °FPartly sunny.5 mph47%29.83 "Hg10 mi
6:53 PM68 °FOvercast.6 mph44%29.84 "Hg10 mi
5:53 PM69 °FOvercast.6 mph44%29.84 "Hg10 mi
4:53 PM68 °FBroken clouds.No wind45%29.85 "Hg10 mi
3:53 PM67 °FPartly sunny.5 mph49%29.87 "Hg10 mi
8:53 AM55 °FSunny.No wind74%29.96 "Hg10 mi
7:53 AM51 °FSunny.No wind86%29.97 "Hg10 mi
6:53 AM50 °FSunny.No wind86%29.98 "Hg10 mi
5:53 AM50 °FClear.No wind86%29.99 "Hg10 mi
4:53 AM50 °FClear.No wind89%30.00 "Hg10 mi
3:53 AM50 °FClear.No wind86%30.00 "Hg10 mi
2:53 AM51 °FClear.No wind86%30.00 "Hg10 mi
Weather by CustomWeather, © 2014

See weather overviewHow to use our weather pages